Home > Weather > Rybnik > Past weeks

Flag for Poland Weather for the Past 2 Weeks in Rybnik, Poland

Now
34 °F

Fog.


Feels Like: 28 °F
Forecast: 40 / 46 °F
Wind: 7 mph from Southeast

Location: Katowice Airport

Current Time: Feb 14, 2016 at 6:09:17 AM

Latest Report: Feb 14, 2016 at 5:30 AM


Visibility: 0 mi

Pressure: 29.30 "Hg

Humidity: 100%

Dew point: 34 °F

Location of RybnikLocation

Historic Weather in Rybnik — Graph

°F

Rybnik Temperature Yesterday

Maximum temperature yesterday: 39 °F (at 2:00 PM)
Minimum temperature yesterday: 32 °F (at 1:00 AM)
Average temperature yesterday: 36 °F

High & Low Weather Summary for the Past Weeks

 TemperatureHumidityPressure
High54 °F (Jan 30, 2:00 PM)100% (Jan 31, 6:30 AM)30.27 "Hg (Jan 31, 6:30 AM)
Low30 °F (Feb 4, 12:30 AM)44% (Jan 30, 2:30 PM)29.24 "Hg (Feb 10, 3:30 AM)
Average39 °F80%29.77 "Hg
* Reported Jan 30 4:00 AM — Feb 14 4:30 AM, Rybnik, Weather by CustomWeather, © 2016

Note: Actual official high and low records may vary slightly from our data, if they occured in-between our weather recording intervals... More about our weather records

Advertising

Rybnik Weather History for the Previous 24 Hours

 ConditionsComfort  
Time TempWeatherWind HumidityBarometerVisibility
4:30 AM
Sun, Feb 14
34 °FFog.6 mph100%29.30 "Hg0 mi
4:00 AM36 °FFog.7 mph93%29.30 "Hg0 mi
3:30 AM36 °FFog.6 mph93%29.30 "Hg0 mi
3:00 AM36 °FFog.6 mph93%29.30 "Hg0 mi
2:30 AM36 °FFog.6 mph93%29.30 "Hg0 mi
2:00 AM36 °FFog.5 mph100%29.30 "Hg1 mi
1:30 AM36 °FFog.5 mph100%29.30 "Hg1 mi
1:00 AM36 °FFog.5 mph100%29.30 "Hg1 mi
12:30 AM36 °FFog.5 mph100%29.30 "Hg1 mi
12:00 AM36 °FFog.5 mph100%29.30 "Hg1 mi
11:30 PM
Sat, Feb 13
37 °FFog.3 mph93%29.33 "Hg1 mi
11:00 PM37 °FFog.3 mph100%29.33 "Hg1 mi
10:30 PM37 °FFog.6 mph93%29.33 "Hg1 mi
10:00 PM37 °FFog.1 mph93%29.33 "Hg1 mi
9:30 PM37 °FFog.2 mph93%29.33 "Hg1 mi
9:00 PM37 °FFog.5 mph93%29.33 "Hg1 mi
8:30 PM37 °FFog.2 mph93%29.33 "Hg1 mi
8:00 PM37 °FFog.2 mph93%29.33 "Hg1 mi
7:30 PM37 °FDrizzle. Fog.2 mph93%29.36 "Hg1 mi
7:00 PM37 °FDrizzle. Fog.1 mph93%29.36 "Hg1 mi
6:30 PM37 °FDrizzle. Fog.3 mph93%29.36 "Hg1 mi
6:00 PM37 °FFog.1 mph93%29.36 "Hg3 mi
5:30 PM37 °FFog.1 mph100%29.36 "Hg2 mi
5:00 PM37 °FFog.3 mph100%29.33 "Hg2 mi
4:30 PM37 °FDrizzle. Fog.5 mph100%29.33 "Hg1 mi
4:00 PM37 °FDrizzle. Fog.3 mph100%29.33 "Hg2 mi
3:30 PM37 °FLight rain. Fog.5 mph100%29.36 "Hg2 mi
3:00 PM37 °FLight rain. Fog.5 mph100%29.36 "Hg2 mi
2:30 PM39 °FLight rain. Broken clouds.3 mph93%29.36 "Hg4 mi
2:00 PM39 °FLight rain. Broken clouds.3 mph87%29.36 "Hg4 mi
1:30 PM37 °FLight rain. Fog.3 mph93%29.36 "Hg3 mi
1:00 PM37 °FLight rain. Fog.3 mph100%29.39 "Hg2 mi
12:30 PM37 °FLight rain. Fog.3 mph93%29.39 "Hg2 mi
12:00 PM37 °FFog.5 mph93%29.39 "Hg3 mi
11:30 AM37 °FPartly sunny.6 mph93%29.39 "Hg4 mi
11:00 AM37 °FPartly sunny.3 mph93%29.42 "Hg4 mi
10:30 AM36 °FBroken clouds.2 mph93%29.42 "HgN/A
10:00 AM36 °FLight rain. Scattered clouds.3 mph93%29.42 "HgN/A
9:30 AM36 °FLight rain. Partly sunny.3 mph93%29.42 "Hg4 mi
9:00 AM34 °FLight rain. Fog.5 mph100%29.42 "Hg2 mi
8:30 AM34 °FLight rain. Cloudy.3 mph93%29.42 "Hg1 mi
8:00 AM34 °FLight rain. Broken clouds.5 mph93%29.42 "Hg2 mi
7:30 AM32 °FLight rain. Ice fog.3 mph100%29.45 "Hg2 mi
7:00 AM32 °FLight rain. Ice fog.3 mph100%29.45 "Hg2 mi
6:30 AM32 °FLight rain. Ice fog.6 mph100%29.45 "Hg2 mi
6:00 AM32 °FLight rain. Ice fog.6 mph100%29.45 "Hg2 mi
Weather by CustomWeather, © 2016

See weather overviewHow to use our weather pages